Location: Fensholt
(55.9856°N, 10.0808°E)
Time: 22:07:17
(UTC+00:00)

Cosmos 2369 - Pass Details

Date: 07 June 2020
Orbit: 839 x 856 km, 71.0° (Epoch: 14 July)

Event Time Altitude Azimuth Distance (km) Brightness Sun altitude
Exits shadow 01:01:53 - 229° (SW) 2,681 5.7 -8.2°
Reaches altitude 10° 01:02:29 10° 230° (SW) 2,456 5.6 -8.2°
Maximum altitude 01:08:04 62° 311° (NW) 952 4.1 -7.9°
Drops below altitude 10° 01:13:42 10° 32° (NNE) 2,479 7.9 -7.5°
Sets 01:16:13 0° 36° (NE) 3,420 9.1 -7.4°
